Location: Deer Lodge Site
(39.6809°N, 119.9392°W)
Time: 11:50:33
(UTC-07:00)

Amateur Radio Satellites - All Passes

Search period start: 02 September 2014 11:20
Search period end: 03 September 2014 11:20
Location: Deer Lodge Site, 39.6809°N, 119.9392°W

Satellite Date Start Highest point End Downlink Frequencies (MHz)
Time Altitude Azimuth
MaSat-1 02 Sep 11:31:27 11:33:29 13° 99° (E) 11:35:34 437.345 MHz
ISS 02 Sep 11:31:51 11:34:12 18° 340° (NNW) 11:36:34 145.800 FM
PANSAT 02 Sep 11:41:11 11:43:21 15° 174° (S) 11:45:32 not established
UKube-1 02 Sep 11:49:17 11:51:51 16° 296° (WNW) 11:54:25 145.840 MHz, 145.915 MHz
Oscar 11 02 Sep 11:51:48 11:55:02 21° 293° (WNW) 11:58:16 145.825 FM, Beacon 2401.500 USB
SO-50 02 Sep 12:11:14 12:16:03 79° 58° (ENE) 12:20:54 436.795 FM
UOSAT-12 02 Sep 12:16:28 12:18:08 12° 37° (NE) 12:19:48 437.025 FM, 437.400 FM
FUNcube-1 02 Sep 12:25:15 12:28:53 24° 292° (WNW) 12:32:32 145.950 - 145.970 MHz USB
HO-68 02 Sep 12:31:41 12:34:29 13° 309° (NW) 12:37:16 435.675 MHz FM
Oscar 19 02 Sep 12:38:26 12:42:12 21° 64° (ENE) 12:45:58 437.125 CW, 437.150 USB
AO-Echo 02 Sep 12:45:55 12:46:27 10° 60° (ENE) 12:46:59 ?
MaSat-1 02 Sep 13:04:49 13:09:44 77° 296° (WNW) 13:14:55 437.345 MHz
JAS-1B 02 Sep 13:07:21 13:15:22 32° 63° (ENE) 13:22:36 435.800 - 435.900 CW/SSB
ISS 02 Sep 13:11:12 13:12:00 11° 0° (N) 13:12:48 145.800 FM
Oscar 16 02 Sep 13:12:30 13:17:22 44° 70° (ENE) 13:22:16 437.025 USB, Beacon 2401.1428
ITAMSAT 1 02 Sep 13:17:32 13:21:21 21° 64° (ENE) 13:25:10 435.822 SSB
RS-15 02 Sep 13:18:54 13:26:14 19° 14° (NNE) 13:33:41 29.354 - 29.394 USB, Beacon 29.352 USB
PANSAT 02 Sep 13:20:43 13:22:51 14° 187° (S) 13:24:58 not established
Uribyol 2 02 Sep 13:26:10 13:30:25 27° 66° (ENE) 13:34:42 436.500 FM
TMSAT-1 02 Sep 13:44:17 13:46:29 13° 60° (ENE) 13:48:40 436.925 FM
AO-27 02 Sep 13:46:13 13:50:59 39° 70° (ENE) 13:55:47 436.795 MHz FM
SO-50 02 Sep 13:54:20 13:55:59 12° 253° (WSW) 13:57:37 436.795 FM
UOSAT-12 02 Sep 13:54:26 13:59:10 69° 57° (ENE) 14:03:49 437.025 FM, 437.400 FM
Oscar 19 02 Sep 14:16:11 14:21:10 48° 261° (W) 14:26:11 437.125 CW, 437.150 USB
AO-Echo 02 Sep 14:19:29 14:24:30 89° 76° (ENE) 14:29:24 ?
Gurwin Techsat 1B 02 Sep 14:31:07 14:36:10 46° 71° (ENE) 14:41:14 435.225 FM
MaSat-1 02 Sep 14:45:33 14:47:37 12° 314° (NW) 14:49:42 437.345 MHz
ISS 02 Sep 14:47:24 14:49:48 18° 21° (NNE) 14:52:11 145.800 FM
Oscar 16 02 Sep 14:53:00 14:56:53 21° 266° (W) 15:00:48 437.025 USB, Beacon 2401.1428
ITAMSAT 1 02 Sep 14:55:33 15:00:30 46° 261° (W) 15:05:28 435.822 SSB
JAS-1B 02 Sep 14:55:38 15:05:21 67° 258° (WSW) 15:14:02 435.800 - 435.900 CW/SSB
Uribyol 2 02 Sep 15:05:02 15:09:44 35° 262° (W) 15:14:28 436.500 FM
Uosat F 02 Sep 15:14:49 15:17:55 17° 63° (ENE) 15:21:01 435.120 FM
TMSAT-1 02 Sep 15:20:21 15:25:39 85° 257° (WSW) 15:30:58 436.925 FM
AO-27 02 Sep 15:26:29 15:30:36 24° 265° (W) 15:34:45 436.795 MHz FM
AO-7 02 Sep 15:27:35 15:35:14 42° 62° (ENE) 15:42:52 29.400 - 29.500 MHz
Sapphire 02 Sep 15:29:27 15:33:16 20° 106° (ESE) 15:37:06 437.095 MHz 1200 baud AX-25 AFSK
RS-15 02 Sep 15:31:59 15:42:30 46° 46° (NE) 15:53:19 29.354 - 29.394 USB, Beacon 29.352 USB
UOSAT-12 02 Sep 15:36:38 15:38:42 13° 253° (WSW) 15:40:45 437.025 FM, 437.400 FM
PCSat 02 Sep 15:57:11 16:02:09 39° 111° (ESE) 16:07:09 145.825 MHz
Gurwin Techsat 1B 02 Sep 16:12:24 16:16:20 21° 267° (W) 16:20:18 435.225 FM
ISS 02 Sep 16:23:33 16:26:54 86° 218° (SW) 16:30:13 145.800 FM
OPAL 02 Sep 16:47:01 16:51:15 25° 97° (E) 16:55:27 ?
Uosat F 02 Sep 16:51:18 16:56:13 58° 259° (W) 17:01:10 435.120 FM
JAS-1B 02 Sep 16:53:12 16:56:53 13° 274° (W) 17:00:28 435.800 - 435.900 CW/SSB
Sapphire 02 Sep 17:10:58 17:16:14 54° 302° (WNW) 17:21:34 437.095 MHz 1200 baud AX-25 AFSK
JAS-2 02 Sep 17:13:18 17:18:13 28° 68° (ENE) 17:22:46 435.800 - 435.900 CW/SSB, 435.910 FM
AO-7 02 Sep 17:20:05 17:27:55 44° 260° (W) 17:35:46 29.400 - 29.500 MHz
Hamsat 02 Sep 17:29:29 17:33:18 31° 70° (ENE) 17:37:08 145.90 MHz
PCSat 02 Sep 17:40:54 17:45:37 30° 308° (NW) 17:50:23 145.825 MHz
RS-15 02 Sep 17:44:25 17:55:07 56° 248° (WSW) 18:06:17 29.354 - 29.394 USB, Beacon 29.352 USB
OPAL 02 Sep 18:25:22 18:30:13 40° 293° (WNW) 18:35:01 ?
STRAND 1 02 Sep 18:37:03 18:39:46 14° 91° (E) 18:42:29 ?
JAS-2 02 Sep 18:57:34 19:03:12 38° 261° (W) 19:08:19 435.800 - 435.900 CW/SSB, 435.910 FM
Hamsat 02 Sep 19:05:54 19:09:16 22° 266° (W) 19:12:40 145.90 MHz
SO-67 02 Sep 19:17:40 19:21:06 74° 77° (ENE) 19:24:35 435.3500 MHz FM
HO-68 02 Sep 19:24:17 19:28:25 17° 54° (NE) 19:32:33 435.675 MHz FM
STRAND 1 02 Sep 20:14:19 20:19:22 63° 287° (WNW) 20:24:24 ?
UKube-1 02 Sep 21:06:38 21:10:37 37° 71° (ENE) 21:14:38 145.840 MHz, 145.915 MHz
HO-68 02 Sep 21:07:57 21:15:05 85° 73° (ENE) 21:22:16 435.675 MHz FM
Oscar 11 02 Sep 21:09:41 21:13:14 25° 69° (ENE) 21:16:48 145.825 FM, Beacon 2401.500 USB
MaSat-1 02 Sep 21:24:12 21:27:35 20° 51° (NE) 21:30:38 437.345 MHz
Saudisat 1A 02 Sep 21:31:24 21:35:24 35° 115° (ESE) 21:39:25 436.775 MHz
FUNcube-1 02 Sep 21:44:55 21:48:13 23° 68° (ENE) 21:51:35 145.950 - 145.970 MHz USB
KITSAT 1 02 Sep 22:32:53 22:40:28 47° 111° (ESE) 22:48:05 435.175 FM
UKube-1 02 Sep 22:43:56 22:46:56 18° 266° (W) 22:49:57 145.840 MHz, 145.915 MHz
Oscar 11 02 Sep 22:45:36 22:49:18 27° 264° (W) 22:53:03 145.825 FM, Beacon 2401.500 USB
HO-68 02 Sep 22:59:29 23:03:34 16° 270° (W) 23:07:41 435.675 MHz FM
MaSat-1 02 Sep 23:00:44 23:04:45 36° 253° (WSW) 23:08:14 437.345 MHz
Saudisat 1A 02 Sep 23:11:22 23:15:02 25° 312° (NW) 23:18:44 436.775 MHz
Oscar 10/S400 02 Sep 23:16:28 23:50:33 63° 190° (S) 08:58:23 145.825 - 145.975 CW/USB, Beacon 145.810 USB
FUNcube-1 02 Sep 23:20:50 23:24:28 28° 264° (W) 23:28:12 145.950 - 145.970 MHz USB
AO-40 03 Sep 00:08:33 01:58:28 27° 217° (SW) 05:41:36 Beacon 2401.320
Sapphire 03 Sep 00:17:30 00:20:59 17° 44° (NE) 00:24:26 437.095 MHz 1200 baud AX-25 AFSK
KITSAT 1 03 Sep 00:28:21 00:35:55 42° 310° (NW) 00:43:32 435.175 FM
PCSat 03 Sep 00:45:52 00:50:32 28° 51° (NE) 00:55:10 145.825 MHz
Oscar 16 03 Sep 01:26:12 01:29:27 17° 92° (E) 01:32:41 437.025 USB, Beacon 2401.1428
Sapphire 03 Sep 01:59:38 02:05:05 82° 243° (WSW) 02:10:29 437.095 MHz 1200 baud AX-25 AFSK
AO-27 03 Sep 02:01:24 02:04:16 15° 91° (E) 02:07:08 436.795 MHz FM
SO-50 03 Sep 02:26:03 02:29:55 30° 113° (ESE) 02:33:52 436.795 FM
AO-Echo 03 Sep 02:27:57 02:32:00 28° 96° (E) 02:36:06 ?
Oscar 19 03 Sep 02:28:25 02:33:36 65° 102° (ESE) 02:38:44 437.125 CW, 437.150 USB
PCSat 03 Sep 02:28:59 02:34:05 42° 249° (WSW) 02:39:08 145.825 MHz
KITSAT 1 03 Sep 02:30:22 02:33:54 13° 336° (NNW) 02:37:26 435.175 FM
JAS-1B 03 Sep 02:44:41 02:50:34 37° 95° (E) 02:55:50 435.800 - 435.900 CW/SSB
Gurwin Techsat 1B 03 Sep 02:49:00 02:52:49 20° 93° (E) 02:56:36 435.225 FM
Oscar 16 03 Sep 03:04:03 03:09:09 57° 288° (WNW) 03:14:12 437.025 USB, Beacon 2401.1428
ITAMSAT 1 03 Sep 03:08:57 03:14:08 67° 102° (ESE) 03:19:18 435.822 SSB
Uribyol 2 03 Sep 03:17:57 03:23:11 87° 104° (ESE) 03:28:24 436.500 FM
AO-7 03 Sep 03:34:00 03:35:58 11° 87° (E) 03:37:56 29.400 - 29.500 MHz
TMSAT-1 03 Sep 03:37:15 03:42:16 41° 98° (E) 03:47:14 436.925 FM
AO-27 03 Sep 03:39:04 03:44:12 63° 287° (WNW) 03:49:19 436.795 MHz FM
OPAL 03 Sep 04:00:54 04:05:37 40° 67° (ENE) 04:10:25 ?
UOSAT-12 03 Sep 04:05:34 04:09:18 25° 112° (ESE) 04:13:05 437.025 FM, 437.400 FM
SO-50 03 Sep 04:06:28 04:10:25 30° 311° (NW) 04:14:28 436.795 FM
AO-Echo 03 Sep 04:06:45 04:10:43 28° 292° (WNW) 04:14:42 ?
Oscar 19 03 Sep 04:09:19 04:12:23 16° 298° (WNW) 04:15:26 437.125 CW, 437.150 USB
Gurwin Techsat 1B 03 Sep 04:27:55 04:33:02 49° 289° (WNW) 04:38:07 435.225 FM
JAS-1B 03 Sep 04:35:31 04:41:06 31° 297° (WNW) 04:46:08 435.800 - 435.900 CW/SSB
ITAMSAT 1 03 Sep 04:50:06 04:53:03 16° 299° (WNW) 04:56:00 435.822 SSB
Uosat F 03 Sep 04:59:50 05:04:38 45° 100° (E) 05:09:25 435.120 FM
Uribyol 2 03 Sep 04:59:58 05:01:54 12° 301° (WNW) 05:03:50 436.500 FM
TMSAT-1 03 Sep 05:17:43 05:21:55 25° 294° (WNW) 05:26:07 436.925 FM
AO-7 03 Sep 05:21:50 05:30:07 69° 105° (ESE) 05:38:20 29.400 - 29.500 MHz
OPAL 03 Sep 05:40:35 05:44:36 24° 264° (W) 05:48:42 ?
UOSAT-12 03 Sep 05:44:57 05:49:15 37° 309° (NW) 05:53:38 437.025 FM, 437.400 FM
STRAND 1 03 Sep 05:52:02 05:55:43 21° 64° (ENE) 05:59:25 ?
RS-15 03 Sep 05:57:13 06:05:43 26° 103° (ESE) 06:14:03 29.354 - 29.394 USB, Beacon 29.352 USB
Saudisat 1A 03 Sep 05:58:53 06:02:34 25° 48° (NE) 06:06:13 436.775 MHz
JAS-2 03 Sep 06:06:38 06:10:59 24° 96° (E) 06:15:38 435.800 - 435.900 CW/SSB, 435.910 FM
KITSAT 1 03 Sep 06:27:03 06:33:12 23° 38° (NE) 06:39:19 435.175 FM
Uosat F 03 Sep 06:39:27 06:43:05 21° 296° (WNW) 06:46:44 435.120 FM
Hamsat 03 Sep 06:51:21 06:55:42 71° 101° (E) 06:59:58 145.90 MHz
AO-7 03 Sep 07:15:38 07:22:13 28° 304° (WNW) 07:28:49 29.400 - 29.500 MHz
STRAND 1 03 Sep 07:29:40 07:34:33 47° 260° (W) 07:39:28 ?
Saudisat 1A 03 Sep 07:38:10 07:42:13 36° 245° (WSW) 07:46:13 436.775 MHz
JAS-2 03 Sep 07:51:14 07:56:11 41° 289° (WNW) 08:01:33 435.800 - 435.900 CW/SSB, 435.910 FM
RS-15 03 Sep 08:05:45 08:16:51 78° 303° (WNW) 08:27:50 29.354 - 29.394 USB, Beacon 29.352 USB
SO-67 03 Sep 08:15:06 08:18:34 79° 284° (WNW) 08:22:00 435.3500 MHz FM
KITSAT 1 03 Sep 08:21:41 08:29:49 85° 60° (ENE) 08:37:53 435.175 FM
Hamsat 03 Sep 08:30:03 08:31:01 11° 297° (WNW) 08:32:00 145.90 MHz
HO-68 03 Sep 08:38:40 08:42:46 16° 90° (E) 08:46:50 435.675 MHz FM
ISS 03 Sep 09:05:21 09:08:34 48° 138° (SE) 09:11:47 145.800 FM
KITSAT 1 03 Sep 10:19:00 10:24:10 19° 258° (WSW) 10:29:20 435.175 FM
RS-15 03 Sep 10:22:26 10:31:15 27° 330° (NNW) 10:40:07 29.354 - 29.394 USB, Beacon 29.352 USB
HO-68 03 Sep 10:24:03 10:31:15 86° 287° (WNW) 10:38:25 435.675 MHz FM
UKube-1 03 Sep 10:31:21 10:35:43 80° 103° (ESE) 10:40:03 145.840 MHz, 145.915 MHz
Oscar 11 03 Sep 10:33:18 10:37:37 55° 100° (E) 10:41:53 145.825 FM, Beacon 2401.500 USB
ISS 03 Sep 10:42:41 10:45:27 24° 335° (NNW) 10:48:13 145.800 FM
SO-50 03 Sep 10:58:02 11:02:03 26° 47° (NE) 11:06:06 436.795 FM
FUNcube-1 03 Sep 11:09:47 11:14:18 56° 100° (E) 11:18:50 145.950 - 145.970 MHz USB
MaSat-1 03 Sep 11:13:18 11:14:45 11° 98° (E) 11:16:14 437.345 MHz
PANSAT 03 Sep 11:16:02 11:18:15 15° 175° (S) 11:20:28 not established
